Location: ???????
(54.9996°N, 37.9529°E)
Time: 12:25:01
(UTC+00:00)

Cosmos 2221 - Pass Details

Date: 14 April 2024
Orbit: 583 x 603 km, 82.5° (Epoch: 18 May)

Event Time Altitude Azimuth Distance (km) Brightness Sun altitude
Exits shadow 00:02:33 36° 247° (WSW) 945 3.0 -17.9°
Maximum altitude 00:03:40 45° 288° (WNW) 818 3.0 -17.8°
Drops below altitude 10° 00:07:47 10° 2° (N) 1,937 5.8 -17.4°
Sets 00:10:05 0° 9° (N) 2,847 6.9 -17.2°
